Regional Weather Roundup
Issued by NWS

Home | Current Version | Previous Version | Text Only | Print | Product List | Glossary Off
Versions: 1 2 3 4 5 6 7 8 9 10 11 12 13 14 15 16 17 18 19 20 21 22 23 24 25 26 27 28 29 30 31 32 33 34 35 36 37 38 39 40 41 42 43 44 45 46 47 48 49 50

000
ASUS43 KDTX 221401
RWRMI
MICHIGAN HOURLY REGIONAL WEATHER ROUNDUP
NATIONAL WEATHER SERVICE DETROIT/PONTIAC MI
1000 AM EDT TUE JUL 22 2014

NOTE: "FAIR" INDICATES FEW OR NO CLOUDS BELOW 12,000 FEET WITH NO
SIGNIFICANT WEATHER AND/OR OBSTRUCTION TO VISIBILITY.

MIZ047>049-052>055-059>063-066>070-074>076-081>083-221500-
SOUTHEAST LOWER MICHIGAN

CITY           SKY/WX    TMP DP  RH WIND       PRES   REMARKS
ADRIAN         SUNNY     77  66  68 SW5       30.12F
ALMA           SUNNY     75  65  71 S9        30.06F
ANN ARBOR      SUNNY     77  64  64 SW8       30.10F
BAD AXE        SUNNY     76  63  64 S10       30.08F
CARO           SUNNY     79  65  62 S8        30.07F
DETROIT CITY   SUNNY     81  64  56 S8        30.10F
DETROIT        SUNNY     78  63  59 SW7       30.11F
FLINT          SUNNY     80  64  58 VRB6      30.09F
GROSSE ILE     SUNNY     79  66  65 S5        30.10F
HILLSDALE      SUNNY     78  66  68 S5        30.12F
HOWELL         SUNNY     78  62  58 S8        30.10F

CITY           SKY/WX    TMP DP  RH WIND       PRES   REMARKS
JACKSON        SUNNY     78  65  63 S8        30.10F
LAMBERTVILLE   SUNNY     81  64  57 W3        30.11F
LANSING        SUNNY     77  64  64 S12       30.08F
LAPEER         FAIR      78  63  59 S6        30.10F
MASON          SUNNY     76  64  66 CALM      30.09F
MONROE         SUNNY     77  64  65 SW3       30.09F
MT. CLEMENS    SUNNY     79  65  61 VRB5      30.08F
PONTIAC        SUNNY     77  62  59 SW7       30.10F
PORT HOPE        N/A     77  62  59 VRB7      30.04F
PORT HURON     SUNNY     75  66  73 S5        30.10F
TRI CITIES     SUNNY     77  65  66 S9        30.06F
TROY           SUNNY     77  63  60 SW6       30.11F
SAGINAW HB     SUNNY     77  64  65 S8        30.06F
$$
MIZ043>046-050>051-056>058-064>065-071>073-077>080-221500-
SOUTHWEST LOWER MICHIGAN

CITY           SKY/WX    TMP DP  RH WIND       PRES   REMARKS
BATTLE CREEK   SUNNY     77  65  66 S10       30.09F
BENTON HARBOR  SUNNY     76  66  71 S13       30.05F
BIG RAPIDS     SUNNY     76  65  67 S9G24     30.02F
COLDWATER      SUNNY     78  65  63 SW7       30.10F
FREMONT        FAIR      76  66  70 SW14      30.01F
HOLLAND        SUNNY     78  67  68 S10       30.04F
GRAND RAPIDS   MOSUNNY   78  68  71 S12       30.05F
IONIA          FAIR      75  64  69 S10       30.06F
KALAMAZOO      SUNNY     77  65  66 S9        30.08F
LUDINGTON      SUNNY     77  67  71 S17G25    29.99S
MARSHALL       SUNNY     76  65  68 S6        30.09F
MOUNT PLEASANT SUNNY     76  66  70 S6        30.03F
MUSKEGON       MOSUNNY   78  65  63 S20G25    30.01F
SOUTH HAVEN    SUNNY     77  69  76 S9        30.05F
$$
MIZ016>042-221500-
NORTHERN LOWER MICHIGAN

CITY           SKY/WX    TMP DP  RH WIND       PRES   REMARKS
ALPENA         SUNNY     79  65  62 SW13      30.00F
BEAVER ISLAND  PTSUNNY   76  67  75 S13G20    29.91F
BELLAIRE       SUNNY     78  66  65 SW7       29.96F
CADILLAC       SUNNY     76  67  75 S15       30.00F
CHARLEVOIX     SUNNY     78  67  70 S14G20    29.97F
FRANKFORT      MOSUNNY   76  65  67 S16G22    29.94F
GAYLORD        SUNNY     74  64  71 SW14      30.00
GRAYLING       SUNNY     77  67  71 SW8       30.02F
HARBOR SPRINGS SUNNY     77  66  69 S8G18     29.94F
HOUGHTON LAKE  SUNNY     76  65  68 SW13      30.04F
MANISTEE       MOSUNNY   75  66  73 S8        29.97F
OSCODA         SUNNY     78  64  61 SW12      30.02F
PELLSTON       SUNNY     78  66  66 S13       29.94F
ROGERS CITY    SUNNY     77  67  72 SW9       29.99F
TRAVERSE CITY  PTSUNNY   78  65  63 SW12G18   29.94F
$$
MIZ007>008-015-221500-
EASTERN UPPER MICHIGAN

CITY           SKY/WX    TMP DP  RH WIND       PRES   REMARKS
KINROSS        CLOUDY    75  66  73 S8        29.94F
MACKINAC ISLAN PTSUNNY   74  65  74 S7        29.94F
NEWBERRY       PTSUNNY   70  64  83 S10G17    29.89F
S. S. MARIE    CLOUDY    72  64  76 SE5       29.94F
$$
MIZ004>006-011>014-085-221500-
CENTRAL UPPER MICHIGAN

CITY           SKY/WX    TMP DP  RH WIND       PRES   REMARKS
MANISTIQUE     CLOUDY    65  62  91 S9        29.87F
ESCANABA       PTSUNNY   70  63  78 S12G18    29.84F
MENOMINEE      MOSUNNY   77  66  69 SW15G24   29.84F
SAWYER-GWINN   CLOUDY    70  68  94 S16       29.80F FOG
$$
MIZ001>003-009>011-084-221500-
WESTERN UPPER MICHIGAN

CITY           SKY/WX    TMP DP  RH WIND       PRES   REMARKS
IRON MOUNTAIN  CLOUDY    74  69  85 S13       29.81F
HOUGHTON       HVY RAIN  69  67  93 W16G28    29.72R VSB 1/4
COPPER HARBOR    N/A     68  64  87 SW10G22   29.67R
IRONWOOD       PTSUNNY   72  64  78 W22G36    29.79R
$$

ABBREVIATIONS USED IN REMARKS
   TC - TEMPERATURE IN CELSIUS
  WCI - WIND CHILL INDEX
   HX - HEAT INDEX
  VSB - VISIBILITY



USA.gov is the U.S. government's official web portal to all federal, state and local government web resources and services.